{"data":{"norad_id":42815,"intl_designator":"2017-040B","name":"GSAT-17","alt_names":[],"object_type":"PAYLOAD","status":"ACTIVE","operator":null,"country":"IND","launch_date":"2017-06-28","launch_site_code":"FRGUI","launch_vehicle":null,"mission":null,"orbit_class":"UNKNOWN","rcs_meters":null,"size_class":null,"mass_kg":null,"dimensions":null,"purposes":["comms","earth_obs"],"wikipedia_slug":null,"has_3d_model":false,"image_url":null,"decayed_at":null,"tle_current":{"epoch":"2026-05-24T20:32:21.609888Z","epoch_age_seconds":91002,"freshness":"FRESH","line1":"1 42815U 17040B   26144.85580567 -.00000261  00000+0  00000+0 0  9991","line2":"2 42815   0.0692  91.6599 0002601 223.6720 328.6953  1.00269706 32551","mean_motion":1.00269706,"eccentricity":0.0002601,"inclination_deg":0.0692,"raan_deg":91.6599,"arg_perigee_deg":223.672,"mean_anomaly_deg":328.6953,"bstar":0,"rev_number":3255,"period_min":1436.126680176,"perigee_km":35776.210592054,"apogee_km":35798.144988808,"semimajor_km":42165.314790431,"source":"CELESTRAK","updated_at":"2026-05-25T13:38:14.046424Z"}}}